Regional Weather Roundup
Issued by NWS Little Rock, AR

Home | Current Version | Previous Version | Text Only | Print | Product List | Glossary Off
Versions: 1 2 3 4 5 6 7 8 9 10 11 12 13 14 15 16 17 18 19 20 21 22 23 24 25 26 27 28 29 30 31

000
ASUS44 KLZK 221605
RWRLZK

WEATHER ROUNDUP FOR ARKANSAS
NATIONAL WEATHER SERVICE LITTLE ROCK AR
1000 AM CST WED NOV 22 2017

NOTE: "FAIR" INDICATES FEW OR NO CLOUDS BELOW 12,000 FEET WITH NO
SIGNIFICANT WEATHER AND/OR OBSTRUCTIONS TO VISIBILITY.

ARZ001-003-010-029-221700-
NORTHWEST ARKANSAS

CITY           SKY/WX    TMP DP  RH WIND       PRES   REMARKS
FAYETTEVILLE   SUNNY     36  21  54 E5        30.37F
FORT SMITH     SUNNY     41  23  48 E6        30.39F
HARRISON       SUNNY     34  20  56 VRB3      30.38R
BENTONVILLE    SUNNY     34  21  59 N6        30.41R WCI  29
ROGERS         SUNNY     33  20  58 VRB6      30.39R WCI  28
SILOAM SPGS    SUNNY     34  21  59 N6        30.40R WCI  29
HIGHFILL       SUNNY     34  22  61 VRB5      30.39R WCI  30
SPRINGDALE     SUNNY     34  19  55 E7        30.39S WCI  28
$$

ARZ004-005-016-221700-
NORTH CENTRAL ARKANSAS

CITY           SKY/WX    TMP DP  RH WIND       PRES   REMARKS
BATESVILLE     MOSUNNY   37  20  50 VRB5      30.39F
FLIPPIN        SUNNY     37  19  48 N6        30.40F
MTN HOME       SUNNY     35  20  54 VRB5      30.37F WCI  31
$$

ARZ040-041-221700-
WEST CENTRAL ARKANSAS

CITY           SKY/WX    TMP DP  RH WIND       PRES   REMARKS
MENA           SUNNY     45  25  45 NE7       30.35R
MOUNT IDA      SUNNY     45  25  45 CALM      30.34S
$$

ARZ009-017-025-026-028-221700-
NORTHEAST ARKANSAS

CITY           SKY/WX    TMP DP  RH WIND       PRES   REMARKS
JONESBORO      SUNNY     39  23  52 NE14      30.39S
NEWPORT        SUNNY     38  22  52 NE17G23   30.40F
WALNUT RIDGE     N/A     37  20  50 NE13      30.41F
BLYTHEVILLE    SUNNY     38  26  62 N16       30.39F
$$

ARZ022-023-033-042-044-221700-
CENTRAL ARKANSAS

CITY           SKY/WX    TMP DP  RH WIND       PRES   REMARKS
LITTLE ROCK    SUNNY     41  22  46 NE9       30.39S
N LITTLE ROCK    N/A     40  23  50 N6        30.40S
JACKSONVILLE   SUNNY     41  20  44 NE8       30.38F
SEARCY         SUNNY     41  21  44 NE10      30.39F
HOT SPRINGS    SUNNY     45  22  40 E12       30.37R
RUSSELLVILLE   SUNNY     39  20  46 CALM      30.38F
CLINTON        FAIR      41  19  42 VRB6      30.38F
$$

ARZ036-221700-
EAST ARKANSAS

CITY           SKY/WX    TMP DP  RH WIND       PRES   REMARKS
WEST MEMPHIS   SUNNY     39  26  59 NE14      30.36S
$$

ARZ050-053-066-070-073-221700-
SOUTHWEST ARKANSAS

CITY           SKY/WX    TMP DP  RH WIND       PRES   REMARKS
ARKADELPHIA    FAIR      47  24  40 N9        30.38R
CAMDEN         SUNNY     48  23  37 N9        30.36S
TEXARKANA      SUNNY     49  26  41 NE15G21   30.33F
EL DORADO      SUNNY     48  29  47 NE9       30.34S
DE QUEEN       SUNNY     50  28  42 CALM      30.32F
$$

ARZ056-057-069-221700-
SOUTHEAST ARKANSAS

CITY           SKY/WX    TMP DP  RH WIND       PRES   REMARKS
PINE BLUFF     SUNNY     42  25  50 N17G25    30.38R
STUTTGART      SUNNY     40  22  48 NE15G24   30.38S
MONTICELLO     SUNNY     44  26  49 NE9       30.35R

$$






USA.gov is the U.S. government's official web portal to all federal, state and local government web resources and services.